Location: Chmeln�
(49.6483°N, 14.9871°E)
Time: 02:58:27
(UTC+00:00)

Cosmos 1743 - Pass Details

Date: 18 September 2020
Orbit: 510 x 527 km, 82.6° (Epoch: 24 October)

Event Time Altitude Azimuth Distance (km) Brightness Sun altitude
Rises 17:41:32 0° 200° (SSW) 2,636 6.4 -6.5°
Reaches altitude 10° 17:43:43 10° 205° (SSW) 1,750 5.6 -6.9°
Maximum altitude 17:47:28 53° 283° (WNW) 646 3.7 -7.5°
Drops below altitude 10° 17:51:15 10° 1° (N) 1,755 5.5 -8.1°
Sets 17:53:25 0° 6° (N) 2,645 6.4 -8.4°
